[ hide orbit diagram ]
For accurate long-term ephemerides, please instead use our Horizons system.This orbit viewer was implemented using two-body methods, and hence should not be used for determining accurate long-term trajectories (over several years or decades) or planetary encounter circumstances.
Orbital Elements at Epoch 2459200.5 (2020-Dec-17.0) TDB
Reference: JPL 40 (heliocentric ecliptic J2000)
Element | Value | Uncertainty (1-sigma) | Units |
e | .2069715725409144 | 2.0622e-08 | |
a | 3.156995252324478 | 1.3825e-08 | au |
q | 2.50358698044668 | 6.4427e-08 | au |
i | 2.677834966897471 | 9.794e-07 | deg |
node | 109.4431663840637 | 1.4195e-05 | deg |
peri | 229.7611575364846 | 1.4991e-05 | deg |
M | 103.7563461429713 | 6.4734e-06 | deg |
tp | 2458609.997842655465 (2019-May-06.49784266) | 3.4917e-05 | TDB |
period | 2048.846018065308 5.61 | 1.3459e-05 3.685e-08 | d yr |
n | .1757086656711968 | 1.1542e-09 | deg/d |
Q | 3.810403524202276 | 1.6687e-08 | au |
|
| | Orbit Determination Parameters
Additional Information
|
[ show covariance matrix ]
Physical Parameter Table
Parameter |
Symbol |
Value |
Units |
Sigma |
Reference |
Notes |
absolute magnitude |
H |
12.84 |
|
n/a |
E2021B10 |
|
diameter |
diameter |
13.227 |
km |
0.170 |
urn:nasa:pds:neowise_diameters_albedos::2.0[mainbelt] (http://adsabs.harvard.edu/abs/2011ApJ...741...68M) |
|
geometric albedo |
albedo |
0.092 |
|
0.006 |
urn:nasa:pds:neowise_diameters_albedos::2.0[mainbelt] (http://adsabs.harvard.edu/abs/2011ApJ...741...68M) |
|
|
7076 (1980 UC) Discovered 1980-Oct-30 by Vavrova, Z. at Klet |
Reference: DISCOVERY.DB | Last Updated: 2003-08-29 |
|
[ hide close-approach data ]
Close-Approach Data ...sorted by Date/Time (TDB)
|
Date/Time (TDB) |
Time Uncertainty (days_HH:MM) |
Body |
Nominal Distance (au) |
Minimum Distance (au) |
Maximum Distance (au) |
V-relative (km/s) |
V-infinity (km/s) |
JD (TDB) |
Time Uncertainty (minutes) |
Semi-major axis (km) |
Semi-minor axis (km) |
range-LOV angle (deg) |
N-sigma |
BP |
Orbit Ref. |
Reference |
Modified |
1922-Jul-08 03:33 |
00:02 |
Jupiter |
1.93758464322835 |
1.93758362918815 |
1.93758565726811 |
2.18824134283211 |
1.97840656900078 |
2423243.648178692 |
1.79411747469978 |
48.5240080410245 |
2.17169033511779 |
-85.8690524734325 |
3295089.81417621 |
T |
40 |
CATAB v2.0f-lin.ifort 2021-Apr-12 19:24:25 |
2021-Apr-12 19:24 |
1932-Dec-17 06:17 |
00:02 |
Jupiter |
1.60955623518011 |
1.6095557474164 |
1.60955672294227 |
1.10062727616291 |
0.398608109740153 |
2427058.762006788 |
1.52213460692426 |
1778.70697990387 |
188.576062577518 |
-0.112111621890823 |
2111143.7517993 |
T |
40 |
CATAB v2.0f-lin.ifort 2021-Apr-12 19:24:25 |
2021-Apr-12 19:24 |
1943-Jun-03 02:03 |
00:01 |
Jupiter |
1.63897473492253 |
1.63897433411169 |
1.63897513573291 |
1.43014883466941 |
1.00584553490894 |
2430878.585193338 |
1.31328167728451 |
158.606651892584 |
30.2577249972605 |
-18.1355007071013 |
3137395.93735295 |
T |
40 |
CATAB v2.0f-lin.ifort 2021-Apr-12 19:24:25 |
2021-Apr-12 19:24 |
1953-Oct-30 09:30 |
00:01 |
Jupiter |
1.98264903286015 |
1.98264847671872 |
1.98264958900158 |
3.31181874904073 |
3.18020569732039 |
2434680.895637600 |
1.07547409275702 |
26.6506274686276 |
7.47944087822071 |
-49.641244996153 |
4442296.99241569 |
T |
40 |
CATAB v2.0f-lin.ifort 2021-Apr-12 19:24:25 |
2021-Apr-12 19:24 |
2017-Apr-17 09:14 |
< 00:01 |
Jupiter |
1.86755962581522 |
1.86755948305569 |
1.86755976857475 |
1.90357480759398 |
1.64818289478341 |
2457860.885043037 |
0.144545109066652 |
15.7245619313744 |
3.4000055891358 |
-62.7903516569117 |
10143030.2882471 |
T |
40 |
CATAB v2.0f-lin.ifort 2021-Apr-12 19:24:25 |
2021-Apr-12 19:24 |
2027-Sep-30 02:08 |
< 00:01 |
Jupiter |
1.59106608877035 |
1.59106590206531 |
1.5910662754773 |
1.05955219525338 |
0.240681586958813 |
2461678.588707029 |
0.315157025413607 |
5403.36384707339 |
237.096639762693 |
-3.78214470337328 |
5754075.93764823 |
T |
40 |
CATAB v2.0f-lin.ifort 2021-Apr-12 19:24:25 |
2021-Apr-12 19:24 |
2038-Mar-13 02:42 |
< 00:01 |
Jupiter |
1.69405130485941 |
1.69405104056762 |
1.6940515691511 |
1.64840981376712 |
1.31044214780658 |
2465495.612680305 |
0.57332093594769 |
36.7528585154903 |
16.9110436362973 |
-19.1242230113819 |
3634998.69990723 |
T |
40 |
CATAB v2.0f-lin.ifort 2021-Apr-12 19:24:25 |
2021-Apr-12 19:24 |
2112-Jan-24 19:44 |
00:02 |
Jupiter |
1.79718630694313 |
1.79718548093967 |
1.79718713294556 |
1.63711623897489 |
1.31815780701899 |
2492475.322249671 |
1.88429898070232 |
91.5627097891326 |
26.453547300646 |
32.6869265575847 |
2319619.26684772 |
T |
40 |
CATAB v2.0f-lin.ifort 2021-Apr-12 19:24:25 |
2021-Apr-12 19:24 |
2122-Jul-10 16:19 |
00:02 |
Jupiter |
1.58456671549158 |
1.58456652781559 |
1.58456690316928 |
1.05725049736353 |
0.220654119205824 |
2496295.179600607 |
2.0792864391268 |
7697.46789001506 |
477.510873322737 |
-5.46948925849234 |
5216331.39480512 |
T |
40 |
CATAB v2.0f-lin.ifort 2021-Apr-12 19:24:25 |
2021-Apr-12 19:24 |
2132-Dec-18 22:27 |
00:02 |
Jupiter |
1.75719256815195 |
1.75719154162178 |
1.75719359468071 |
1.92501565882584 |
1.65578437539193 |
2500109.435336042 |
2.4320246326463 |
60.291699108281 |
9.65436416045892 |
-38.5387680674843 |
2618704.91155497 |
T |
40 |
CATAB v2.0f-lin.ifort 2021-Apr-12 19:24:25 |
2021-Apr-12 19:24 |
|
|